EW1578 Weather Reports


time (UTC)temp
C
wind
direction
speed
KPH
gust
KPH
rain 1hr
cm
rain 24hr
cm
rain mn
cm
humidity
%
barometer
mb
20260504081514 6 281 0.0 3.2 0.00 0.00 0.00 69 1012.9
20260504050008 8 271 1.6 6.4 0.00 0.00 0.00 61 1012.7
20260504044518 7 271 0.0 4.8 0.00 0.00 0.00 63 1012.8
20260504043010 7 275 0.0 1.6 0.00 0.00 0.00 63 1012.7
20260504041507 8 275 0.0 0.0 0.00 0.00 0.00 61 1012.7
20260504040009 8 274 0.0 6.4 0.00 0.00 0.00 59 1012.4
20260504034510 8 277 0.0 6.4 0.00 0.00 0.00 59 1012.2
20260504033009 9 277 0.0 3.2 0.00 0.00 0.00 57 1012.1
20260504031508 10 277 0.0 6.4 0.00 0.00 0.00 56 1012.1
20260504030047 10 261 0.0 3.2 0.00 0.00 0.00 55 1012.0
20260504024544 10 253 0.0 8.0 0.00 0.00 0.00 54 1012.0
20260504023057 10 237 0.0 9.7 0.00 0.00 0.00 53 1012.1
20260504021540 11 261 0.0 8.0 0.00 0.00 0.00 52 1012.0
20260504020040 11 244 3.2 14.5 0.00 0.00 0.00 51 1011.9
20260504014547 11 254 0.0 8.0 0.00 0.00 0.00 51 1012.0
20260504013044 11 251 0.0 8.0 0.00 0.00 0.00 50 1012.0
20260504011537 11 269 0.0 8.0 0.00 0.00 0.00 50 1011.9
20260504010041 11 250 0.0 9.7 0.00 0.00 0.00 51 1011.8
20260504004537 11 253 0.0 6.4 0.00 0.00 0.00 49 1011.6
20260504003036 12 252 1.6 8.0 0.00 0.00 0.00 47 1011.3
20260504001532 12 261 0.0 8.0 0.00 0.00 0.00 45 1011.1
20260504000031 13 263 0.0 14.5 0.00 0.00 0.00 43 1010.9
20260503234539 13 276 0.0 12.9 0.00 0.00 0.00 41 1010.8
20260503233100 14 246 4.8 25.7 0.00 0.00 0.00 40 1010.7
20260503231559 14 263 0.0 14.5 0.00 0.00 0.00 40 1010.7
20260503230028 15 291 6.4 20.9 0.00 0.00 0.00 39 1010.6
20260503224528 15 275 4.8 14.5 0.00 0.00 0.00 39 1010.5
20260503223025 15 317 1.6 19.3 0.00 0.00 0.00 39 1010.4
20260503221526 15 306 3.2 25.7 0.00 0.00 0.00 37 1010.6
20260503220024 15 272 12.9 29.0 0.00 0.00 0.00 37 1010.5
20260503214527 15 254 8.0 19.3 0.00 0.00 0.00 36 1010.5
20260503213106 15 269 3.2 19.3 0.00 0.00 0.00 37 1010.3
20260503211555 15 280 6.4 24.1 0.00 0.00 0.00 37 1010.3
20260503210057 16 311 8.0 24.1 0.00 0.00 0.00 35 1010.4
20260503204552 15 273 11.3 25.7 0.00 0.00 0.00 35 1010.4
20260503203045 16 292 8.0 29.0 0.00 0.00 0.00 36 1010.4
20260503201544 15 348 12.9 29.0 0.00 0.00 0.00 35 1010.5
20260503200044 15 327 3.2 22.5 0.00 0.00 0.00 41 1010.8
20260503194513 15 331 12.9 32.2 0.00 0.00 0.00 37 1011.1
20260503193010 14 273 11.3 25.7 0.00 0.00 0.00 39 1011.3
20260503191503 14 331 9.7 22.5 0.00 0.00 0.00 39 1011.3
20260503190001 14 267 8.0 24.1 0.00 0.00 0.00 43 1011.5
20260503184601 13 306 6.4 22.5 0.00 0.00 0.00 45 1011.7
20260503183114 13 334 14.5 33.8 0.00 0.00 0.00 40 1011.9
20260503181555 12 329 4.8 29.0 0.00 0.00 0.00 39 1011.9
20260503180054 13 292 11.3 29.0 0.00 0.00 0.00 44 1012.0
20260503174551 13 288 3.2 25.7 0.00 0.00 0.00 46 1012.1
20260503173113 12 333 17.7 32.2 0.00 0.00 0.00 41 1012.3
20260503171548 11 321 16.1 30.6 0.00 0.00 0.00 44 1012.4